Location: Gad�tanya
(48.0500°N, 20.8500°E)
Time: 21:43:15
(UTC+00:00)

CRYOSAT 2 - Pass Details

Date: 05 July 2020
Orbit: 714 x 725 km, 92.0° (Epoch: 05 August)

Event Time Altitude Azimuth Distance (km) Brightness Sun altitude
Rises 22:51:32 0° 7° (N) 3,136 9.3 -19.2°
Reaches altitude 10° 22:53:52 10° 11° (N) 2,210 8.1 -19.2°
Maximum altitude 22:58:42 62° 92° (E) 806 4.6 -19.2°
Enters shadow 23:00:33 36° 158° (SSE) 1,124 4.9 -19.2°
